Lapse_Rate
8.0 7.5 7.4 7.9 8.2 8.4 8.4 8.4 8.7 9.2 8.9 8.9 9.1 9.2 9.2 9.1 9.0 9.0 9.0 8.8 8.6 8.4 8.4 8.3 8.1 7.8 7.7 7.2 6.9 7.0 6.8 6.8 6.8 6.4 6.3 6.1 6.1 6.6 6.5 6.6 6.2 6.2 6.1 6.1
7.4 7.6 7.3 6.8 7.3 7.8 8.2 8.2 8.5 8.8 8.7 8.9 9.1 9.3 9.2 9.3 9.3 9.1 9.2 9.1 9.0 8.7 8.5 8.4 8.2 7.9 7.9 7.6 7.3 7.1 6.8 7.0 6.5 6.7 6.4 6.5 6.4 6.7 6.6 6.1 5.9 6.1 6.1 6.1
6.9 6.8 6.9 6.6 6.6 7.2 7.8 8.3 8.5 8.5 8.9 9.0 9.1 9.1 9.2 9.4 9.5 9.4 9.4 9.2 9.1 9.0 8.6 8.3 8.3 8.2 8.1 7.8 7.5 7.1 6.8 6.8 6.5 6.4 6.4 6.3 6.4 6.1 6.3 6.0 6.1 6.2 6.1 6.0
6.5 6.4 6.5 6.8 7.0 7.2 7.4 7.8 8.2 8.3 8.7 8.8 9.0 9.1 9.1 9.2 9.5 9.5 9.5 9.4 9.2 9.0 8.7 8.4 8.3 8.3 8.0 7.9 7.6 7.2 7.3 7.1 6.3 6.3 6.4 6.2 6.0 6.1 6.2 6.3 6.2 6.1 6.1 6.0
6.5 6.6 6.6 6.6 7.1 7.1 7.2 7.3 7.7 8.1 8.4 8.6 8.8 9.0 9.2 9.2 9.2 9.5 9.4 9.3 9.2 9.0 8.8 8.4 8.2 8.0 7.8 7.5 7.6 7.3 6.7 6.9 6.6 6.5 6.3 6.5 6.2 6.3 6.3 6.3 6.2 6.1 5.9 5.7
6.6 6.7 6.7 6.6 7.4 7.5 7.5 7.0 7.5 7.8 8.3 8.6 8.8 8.8 9.1 9.1 9.0 9.3 9.4 9.1 8.9 8.8 8.6 8.2 8.1 8.0 7.8 7.4 7.2 7.1 6.8 6.9 7.1 7.1 6.8 6.4 6.4 6.6 6.4 6.3 6.3 5.9 5.6 5.6
6.8 6.6 6.4 6.6 7.1 7.8 7.3 7.6 7.7 7.9 8.3 8.7 8.8 8.8 8.9 9.1 9.1 9.0 9.2 9.1 8.6 8.6 8.4 8.2 8.0 7.7 7.4 7.2 7.0 7.0 6.8 6.6 6.8 6.7 6.9 6.5 6.4 6.3 6.0 6.1 6.1 5.9 5.7 5.7
6.8 6.8 6.8 6.7 7.3 7.2 7.2 7.6 8.0 7.8 8.1 8.4 8.7 8.7 8.7 8.7 9.0 9.1 9.1 8.9 8.7 8.6 8.4 8.2 7.8 7.5 6.9 6.7 6.1 5.7 6.0 5.6 5.4 6.7 6.7 6.6 6.4 6.3 6.1 6.1 6.0 5.8 5.7 5.3
6.9 7.1 7.1 7.0 7.1 7.1 7.4 7.4 7.7 8.0 7.9 8.2 8.5 8.7 8.6 8.6 8.5 8.6 9.0 8.7 8.5 8.3 8.2 7.8 7.5 7.2 6.5 6.2 5.7 5.6 4.8 4.7 5.7 6.4 6.6 6.5 6.4 6.3 6.0 6.1 5.8 5.5 5.3 5.3
6.7 6.8 6.9 7.0 6.9 6.9 7.2 7.4 7.5 8.0 8.0 8.2 8.2 8.3 8.5 8.3 8.5 8.1 8.5 8.2 8.5 8.1 7.9 7.4 7.2 7.0 6.4 6.0 6.0 6.3 5.7 5.8 5.9 6.1 6.7 6.2 6.2 5.9 5.8 5.6 5.3 5.3 5.4 5.7
6.2 6.5 6.8 7.0 6.9 6.9 7.1 7.2 7.3 7.5 7.7 8.0 8.4 8.3 8.9 8.6 8.4 8.6 8.6 8.4 8.1 7.7 7.5 7.2 7.1 6.9 6.6 6.1 6.3 6.5 6.1 6.1 6.4 6.3 6.0 6.0 5.6 5.5 5.3 5.3 5.5 5.5 5.4 5.8
5.6 6.5 6.2 6.7 7.0 6.8 7.1 7.4 7.2 7.1 7.6 7.6 8.0 8.2 8.6 8.9 8.5 8.5 8.6 8.5 8.1 7.7 7.4 7.1 6.9 6.8 6.6 6.3 6.1 6.0 6.3 6.1 5.9 5.9 5.7 5.4 5.3 5.3 5.4 5.5 5.5 5.2 5.7 5.9
5.4 5.7 5.7 6.3 7.0 7.1 7.1 7.2 7.0 6.7 7.2 7.7 7.5 7.8 8.1 8.1 8.3 8.4 8.8 8.6 8.0 7.3 7.1 6.9 6.7 6.7 6.4 6.1 5.8 5.7 5.7 5.6 5.7 5.5 5.3 5.3 5.4 5.3 5.5 5.5 5.4 5.7 5.9 5.7
5.8 6.2 6.7 7.2 7.3 6.9 6.5 6.7 6.7 6.9 7.3 7.4 7.3 7.3 7.7 7.5 8.0 8.2 8.1 7.9 7.3 7.3 7.0 6.7 6.7 6.4 6.2 6.0 5.9 5.7 5.6 5.5 5.2 5.3 5.3 5.4 5.3 5.4 5.5 5.6 5.6 5.7 5.8 6.0
5.9 6.0 6.5 6.6 6.5 6.5 6.3 6.4 6.5 7.0 7.3 7.1 6.9 7.0 7.4 7.5 7.5 7.2 7.3 7.5 7.7 7.6 6.7 6.6 6.8 6.5 6.1 6.0 5.9 5.5 5.4 5.1 5.1 5.2 5.4 5.3 5.2 5.3 5.4 5.6 5.8 5.9 5.9 6.0
6.2 5.9 6.0 6.4 6.4 6.3 6.2 6.3 6.7 7.0 6.9 6.9 6.9 6.9 6.9 6.8 6.3 6.5 5.8 7.0 7.5 7.2 6.3 6.3 6.5 6.5 6.4 6.1 5.9 5.7 5.5 5.0 5.0 5.1 5.2 5.3 5.2 5.2 5.5 5.8 6.0 6.0 5.9 6.2
6.2 6.4 6.2 6.2 6.2 6.3 6.3 6.3 6.6 6.8 6.9 7.0 6.8 6.7 6.6 6.3 6.0 5.6 6.5 6.7 7.0 7.5 6.5 6.3 6.4 6.4 6.4 6.2 6.1 6.0 5.5 5.1 4.9 5.1 5.1 5.0 5.1 5.3 5.6 5.9 6.1 6.0 6.1 6.2
6.1 6.3 6.3 6.3 6.2 6.3 6.3 6.4 6.5 6.7 6.9 6.7 6.6 6.8 6.8 6.4 5.8 6.6 6.7 7.3 7.1 7.1 6.9 6.8 6.5 6.4 6.3 6.2 6.2 6.1 5.7 5.3 5.1 5.2 5.4 5.0 5.0 5.1 5.5 5.8 6.1 6.1 6.1 6.2
5.9 6.2 6.5 6.5 6.5 6.3 6.2 6.2 6.3 6.9 7.0 7.0 6.8 6.8 6.7 6.8 7.0 6.8 7.0 7.3 7.2 7.4 7.0 6.8 6.6 6.5 6.4 6.3 6.1 6.2 6.1 5.6 5.3 5.4 5.3 5.2 5.1 5.2 5.4 5.7 5.8 6.0 6.1 6.0
6.1 6.3 6.3 6.3 6.1 5.8 5.7 5.8 6.2 6.6 6.9 7.0 6.9 6.7 6.9 6.5 6.6 6.6 7.0 7.2 7.5 7.4 7.5 7.2 6.9 6.6 6.4 6.3 6.2 6.3 6.3 5.9 5.3 5.2 5.2 5.0 5.2 5.4 5.4 5.7 5.7 5.8 5.9 6.0
6.1 6.3 6.2 6.2 6.0 6.0 6.0 6.0 6.0 6.5 6.8 6.5 7.0 7.1 7.1 7.1 6.9 6.9 6.7 7.1 7.4 7.5 7.5 7.1 6.9 6.8 6.7 6.6 6.5 6.4 6.3 5.5 5.1 5.1 4.8 4.9 5.0 5.3 5.4 5.6 5.7 5.8 6.0 6.1
6.1 6.2 6.3 6.1 6.1 5.9 6.1 5.8 5.6 5.7 5.9 6.1 6.7 7.0 7.0 7.0 7.0 6.8 6.9 7.0 7.3 7.4 7.4 7.2 7.0 6.9 6.8 6.6 6.5 6.4 6.3 5.7 5.2 5.0 5.1 5.1 5.2 5.3 5.5 5.6 5.7 5.8 5.9 5.8
6.1 6.2 6.3 6.2 6.1 6.1 6.1 5.9 5.4 5.7 6.0 6.2 6.2 6.6 6.7 6.4 6.6 6.7 7.1 6.9 6.9 7.1 7.3 7.2 7.0 6.8 6.9 6.7 6.4 6.3 6.2 5.6 5.3 5.2 5.2 5.4 5.4 5.6 5.5 5.5 5.4 5.4 5.4 5.4
6.0 6.4 6.4 6.2 5.9 5.7 5.8 6.1 6.0 6.0 6.1 6.2 6.4 6.6 6.4 6.3 6.3 6.3 6.4 6.6 6.7 6.9 6.9 7.0 6.8 6.6 6.6 6.7 6.6 6.5 6.5 6.1 5.4 5.3 5.4 5.5 5.7 5.7 5.4 5.4 5.3 5.1 5.0 5.0
6.0 6.1 6.2 6.0 5.9 5.7 5.8 5.6 6.1 6.3 6.0 5.9 5.8 6.0 6.0 5.9 5.9 6.0 6.4 6.6 6.7 6.7 6.7 6.8 6.6 6.3 6.2 6.5 6.6 6.5 6.1 5.9 5.7 5.4 5.4 5.5 5.6 5.6 5.4 5.3 5.1 5.0 5.2 5.1
5.9 6.1 6.1 6.1 5.8 5.8 5.6 5.5 5.5 5.4 5.5 5.7 5.9 5.8 5.9 6.0 6.2 6.4 6.3 6.3 6.3 6.2 6.4 6.7 6.5 6.1 5.8 6.1 6.2 6.2 6.1 6.0 5.8 5.7 5.8 5.8 5.8 5.6 5.5 5.3 5.2 5.0 5.2 5.1
5.6 6.1 6.1 5.7 5.6 5.6 5.6 5.6 5.4 5.3 5.5 5.5 5.8 5.6 5.7 5.8 5.8 5.9 5.7 5.6 5.4 5.9 6.1 6.2 6.0 5.8 5.7 5.9 5.9 6.0 6.1 6.0 6.0 5.8 5.8 5.7 5.6 5.6 5.5 5.5 5.4 5.4 5.3 5.2
Wind_Speed
9 10 8 11 14 9 12 16 10 12 10 10 9 7 8 5 3 4 6 8 11 12 12 13 13 13 14 15 15 16 17 15 14 11 11 11 10 10 11 12 13 12 11 10
5 9 8 11 13 12 13 12 11 8 10 11 6 6 9 6 5 7 9 9 9 9 11 13 14 14 15 15 15 15 15 15 10 10 12 11 7 10 8 11 10 8 8 8
11 7 10 15 12 16 15 11 12 12 13 4 7 8 8 6 7 9 9 10 11 10 11 11 12 13 15 14 14 14 13 13 13 13 13 11 10 9 9 8 6 4 3 3
7 7 16 7 3 8 10 14 13 11 10 7 7 9 12 10 10 11 11 10 10 9 9 8 9 10 9 11 13 11 11 11 13 14 10 8 10 10 7 4 3 2 2 2
9 12 15 15 12 4 3 6 5 6 8 10 10 9 8 3 8 8 8 8 9 8 8 7 6 6 9 10 11 13 14 14 13 13 12 10 9 7 5 5 4 4 4 4
7 12 17 10 17 3 2 12 7 6 8 11 10 7 5 14 10 5 6 8 8 9 8 9 9 10 11 8 6 4 8 10 11 11 11 9 9 7 4 7 6 4 3 3
13 12 9 3 7 2 10 2 9 10 9 9 7 8 17 16 13 5 5 9 8 9 10 11 13 15 14 12 11 10 10 6 7 14 11 10 10 7 6 6 5 3 3 5
5 8 13 5 3 5 6 5 8 9 9 11 12 15 15 16 11 4 9 10 10 10 10 11 13 16 15 15 13 10 12 7 5 10 8 8 10 8 7 4 5 6 8 7
6 4 2 3 6 9 6 7 9 10 11 12 13 15 15 14 10 6 11 11 11 11 10 11 13 14 16 14 14 17 12 7 6 7 8 7 8 8 5 5 6 7 6 7
3 6 3 5 12 6 4 6 10 12 13 12 12 13 15 12 7 7 11 13 12 13 11 10 12 13 11 12 11 18 13 9 7 9 9 7 6 4 5 5 6 6 6 8
5 10 13 10 1 4 9 11 12 12 13 13 13 13 12 10 6 8 11 13 13 13 14 12 13 16 16 14 12 14 14 11 10 8 9 8 6 6 6 5 4 5 6 6
12 14 12 17 16 15 12 12 14 11 14 12 11 12 16 11 5 7 10 11 12 13 16 15 15 16 17 17 16 16 14 11 10 9 9 8 8 6 2 1 6 7 8 5
16 15 17 17 17 14 15 15 16 11 11 10 12 10 12 9 5 6 12 13 13 13 14 17 17 17 16 16 15 15 14 14 10 10 9 9 8 7 7 4 7 4 5 7
16 15 16 16 12 11 11 16 13 14 11 9 10 10 9 6 3 8 11 11 13 14 13 14 15 16 17 15 14 12 12 9 9 9 9 8 8 6 5 6 6 6 7 8
12 12 17 17 15 16 15 13 15 14 11 10 8 9 7 5 5 6 6 9 13 13 13 14 15 15 15 13 11 14 12 10 9 8 8 8 7 6 5 5 5 5 5 6
13 12 10 11 13 12 12 14 15 14 12 11 9 9 9 8 4 7 10 11 14 12 14 14 14 15 16 15 14 12 11 10 8 8 8 8 7 6 5 4 4 4 4 5
10 11 9 10 12 14 14 13 13 13 11 11 10 8 7 10 8 9 10 11 11 12 12 13 13 14 15 16 15 11 9 10 9 8 7 7 6 5 5 4 3 2 2 3
12 14 13 13 13 13 14 14 12 12 11 11 8 7 10 13 16 16 13 12 11 12 13 12 13 14 15 15 14 10 10 10 9 8 7 7 6 5 4 4 3 3 2 2
11 12 13 13 14 15 15 13 12 11 9 9 7 8 8 8 12 13 13 15 14 13 12 13 16 15 15 15 14 8 8 10 9 8 7 7 6 5 5 4 4 4 3 3
11 11 11 12 12 12 11 12 10 8 7 6 5 7 9 11 13 14 14 14 11 9 14 14 16 13 13 16 15 9 8 9 9 8 7 7 6 6 6 5 5 5 4 3
11 11 10 10 9 6 10 8 7 7 7 7 5 6 5 9 9 10 10 8 10 10 12 17 12 9 9 12 13 10 9 8 8 8 7 8 6 7 6 6 7 6 5 4
10 10 10 8 6 6 7 6 5 4 4 6 4 4 6 8 9 9 6 5 8 10 8 9 9 13 10 16 10 9 10 11 9 7 7 8 7 7 8 8 7 6 6 6
8 9 9 6 5 3 2 4 4 5 5 6 9 5 6 7 8 9 8 6 8 9 8 7 8 14 12 9 8 7 9 11 10 9 8 9 8 8 7 7 7 7 7 8
11 8 7 5 3 3 4 3 6 8 8 9 9 10 7 6 6 6 3 10 11 11 7 7 9 13 13 8 8 8 8 9 8 9 9 8 8 8 8 7 8 8 8 8
8 8 5 8 7 6 7 6 3 4 5 7 8 7 5 4 5 7 5 8 11 11 7 9 11 13 9 7 7 7 7 7 8 8 8 8 8 8 8 8 8 8 7 7
8 6 5 8 5 3 4 2 2 3 4 6 5 4 4 2 2 7 5 5 9 7 7 7 7 8 8 8 9 9 8 9 9 8 8 9 9 8 9 9 9 8 9 9
6 9 7 5 6 5 4 5 4 4 4 5 7 5 4 3 3 4 3 4 5 5 5 5 6 7 7 6 7 7 6 6 6 6 6 7 8 8 8 8 8 8 8 8
Wind_Direction
261 270 259 262 268 231 220 244 225 248 215 256 262 275 286 318 253 188 204 203 199 195 192 192 192 192 194 195 194 195 195 201 202 193 193 190 208 225 233 231 238 237 238 240
263 275 274 265 266 270 236 232 253 267 253 245 266 269 265 261 251 223 214 205 200 199 189 190 191 191 192 193 191 188 192 204 186 184 199 219 191 220 223 234 237 235 233 239
260 267 293 272 250 250 248 235 235 243 250 296 258 266 288 277 232 235 219 204 190 194 194 188 192 194 198 193 188 190 189 184 176 176 200 208 209 203 205 201 199 209 224 262
264 261 255 264 289 287 268 274 252 259 259 293 292 288 284 268 259 230 220 201 191 184 172 176 193 201 196 186 179 168 177 185 172 170 163 166 163 165 150 140 116 98 68 5
240 242 265 266 279 311 357 304 28 308 320 330 320 295 283 269 257 262 227 195 189 181 163 146 155 164 175 182 178 165 162 180 162 160 151 164 143 118 103 124 93 61 34 360
226 247 255 260 246 119 181 263 13 350 340 336 319 237 223 360 348 259 209 180 161 143 139 124 112 117 107 98 107 129 153 156 140 139 134 131 112 107 122 89 77 58 10 344
229 245 259 282 317 145 220 285 345 346 339 331 309 304 311 315 335 315 191 160 139 138 131 126 123 114 102 94 80 68 52 32 119 113 118 109 103 100 89 88 90 68 21 10
220 234 250 11 169 263 358 321 323 330 330 316 310 305 309 312 309 243 172 152 150 130 127 126 132 120 122 117 123 96 84 53 9 81 98 105 103 91 79 91 69 42 22 5
223 240 129 12 336 308 279 292 312 310 322 316 319 315 317 308 299 214 181 158 152 137 128 125 130 137 139 145 149 120 102 109 219 115 109 116 116 106 114 84 57 42 23 354
245 223 268 295 308 284 278 299 313 310 307 316 316 314 307 306 287 198 180 161 149 137 130 122 127 134 138 142 145 115 129 163 172 150 126 113 107 120 91 75 61 41 16 356
264 288 303 300 358 317 302 299 298 306 305 303 309 315 308 302 273 204 181 165 161 151 140 134 138 139 139 142 137 131 144 158 156 136 134 134 115 96 96 80 53 50 14 348
267 278 273 276 285 290 272 294 301 296 303 300 306 306 322 307 284 208 185 170 159 151 137 136 145 146 147 155 154 150 150 157 157 149 149 135 122 122 263 253 207 233 259 270
259 262 273 266 278 279 271 282 290 281 292 298 298 306 308 290 256 197 185 174 160 147 143 145 151 150 156 161 164 163 157 155 158 154 145 138 139 137 125 164 226 258 7 9
253 266 265 251 266 271 280 286 271 280 288 294 291 291 292 290 223 201 192 169 150 144 144 148 151 155 160 164 164 161 155 144 156 150 151 145 139 126 109 93 73 54 46 18
267 253 255 269 270 274 271 268 267 272 281 289 290 273 264 216 219 198 161 167 144 139 147 155 161 160 162 162 164 160 156 163 164 158 153 138 136 136 122 104 83 61 43 45
292 270 255 255 267 268 267 266 263 271 274 269 270 262 248 195 285 145 194 162 148 165 160 168 167 164 164 168 169 162 162 157 166 157 153 154 158 156 140 109 88 69 50 35
275 278 259 249 253 255 258 260 263 270 268 258 258 259 235 187 201 218 188 162 178 162 164 169 167 167 171 173 171 164 161 164 167 163 168 170 168 157 141 134 136 103 72 66
270 271 277 271 270 270 268 261 259 259 246 253 254 245 220 191 197 214 185 166 161 158 167 170 169 169 174 176 175 165 163 166 178 179 170 179 183 175 166 170 162 181 163 120
286 280 273 267 269 270 264 259 248 244 238 248 245 254 228 198 201 196 167 164 159 160 177 168 162 164 178 177 174 160 169 173 182 184 184 176 185 190 193 193 196 197 186 200
292 287 280 278 277 265 245 242 243 238 234 227 243 224 192 189 184 181 172 174 172 170 161 164 165 169 177 177 177 168 166 189 186 191 192 190 198 194 200 208 211 196 201 209
301 297 293 289 290 254 233 226 214 228 233 217 238 247 216 168 173 170 170 168 167 151 159 157 168 171 174 174 183 181 175 176 180 192 191 204 201 214 204 207 209 215 214 217
308 305 303 307 296 252 223 219 221 227 209 211 220 232 199 175 172 181 190 181 153 154 158 166 170 173 175 169 182 185 186 189 192 183 199 210 210 210 211 213 219 223 226 229
307 309 302 299 290 242 200 230 255 247 241 224 215 210 192 180 177 180 180 169 151 168 167 171 158 159 157 174 173 173 187 196 195 195 201 207 209 211 214 217 222 229 232 232
325 322 314 303 192 173 215 224 273 252 222 211 207 207 194 176 191 208 136 147 138 162 173 159 160 159 170 183 187 184 186 194 191 207 208 202 205 209 217 226 229 235 242 240
348 357 51 75 76 64 29 359 21 155 166 183 191 201 199 192 209 173 154 158 138 164 173 136 153 167 194 187 190 186 195 201 200 202 204 202 215 220 229 233 243 245 243 241
7 36 52 49 60 42 342 322 28 58 114 117 122 146 164 152 65 150 132 147 153 159 154 149 173 181 199 200 198 196 196 205 196 208 216 216 223 229 234 239 243 238 235 241
27 30 40 31 44 43 17 14 49 37 44 71 74 51 67 68 63 111 130 123 140 155 139 143 162 188 198 189 193 196 205 215 215 231 226 236 245 247 250 254 255 253 251 248